When you browse on this site, cookies collect data to enhance your experience and personalize the content and advertising you see.
Visit our Privacy Policy to learn more. By continuing to use the site, you agree to this use of cookies and data.
  • In Hungary
  • List of Countries
  • For 7 days
  • Water Temperature
  • Satellite Maps
  • Weather Map
  • News
  • Weather Widgets
  • user-avatar
    Login

    Hourly Weather Castello de la Plana

    Today, 24 February, Sunday

    Time Temperature Precipitation Wind Pressure Humidity
    00:00 +13°C° 0 mm 3 mps 768 mmHg 60%
    01:00 +13°C° 0 mm 4 mps 769 mmHg 65%
    02:00 +12°C° 0 mm 4 mps 769 mmHg 69%
    03:00 +12°C° 0 mm 5 mps 770 mmHg 73%
    04:00 +12°C° 0 mm 5 mps 770 mmHg 76%
    05:00 +12°C° 0 mm 5 mps 770 mmHg 79%
    06:00 +10°C° 0 mm 5 mps 771 mmHg 82%
    07:00 +12°C° 0 mm 4 mps 771 mmHg 79%
    08:00 +13°C° 0 mm 4 mps 771 mmHg 76%
    09:00 +14°C° 0 mm 4 mps 771 mmHg 73%
    10:00 +14°C° 0 mm 4 mps 771 mmHg 68%
    11:00 +15°C° 0 mm 4 mps 772 mmHg 63%
    12:00 +17°C° 0 mm 3 mps 772 mmHg 58%
    13:00 +17°C° 0 mm 3 mps 771 mmHg 58%
    14:00 +17°C° 0 mm 3 mps 771 mmHg 58%
    15:00 +17°C° 0 mm 3 mps 771 mmHg 57%
    16:00 +16°C° 0 mm 3 mps 771 mmHg 63%
    17:00 +15°C° 0 mm 2 mps 771 mmHg 68%
    18:00 +13°C° 0 mm 1 mps 771 mmHg 73%
    19:00 +13°C° 0 mm 1 mps 771 mmHg 74%
    20:00 +12°C° 0 mm 0 mps 772 mmHg 75%
    21:00 +11°C° 0 mm 0 mps 772 mmHg 76%
    22:00 +11°C° 0 mm 0 mps 772 mmHg 76%
    23:00 +11°C° 0 mm 0 mps 772 mmHg 77%

    Tomorrow, 25 February, Monday

    Time Temperature Precipitation Wind Pressure Humidity
    00:00 +12°C° 0 mm 1 mps 772 mmHg 77%
    01:00 +10°C° 0 mm 0 mps 772 mmHg 78%
    02:00 +10°C° 0 mm 0 mps 772 mmHg 79%
    03:00 +10°C° 0 mm 0 mps 771 mmHg 79%
    04:00 +10°C° 0 mm 0 mps 771 mmHg 80%
    05:00 +10°C° 0 mm 0 mps 771 mmHg 81%
    06:00 +9°C° 0 mm 0 mps 771 mmHg 81%
    07:00 +11°C° 0 mm 0 mps 772 mmHg 76%
    08:00 +13°C° 0 mm 1 mps 772 mmHg 71%
    09:00 +14°C° 0 mm 1 mps 772 mmHg 65%
    10:00 +16°C° 0 mm 1 mps 772 mmHg 61%
    11:00 +18°C° 0 mm 1 mps 771 mmHg 57%
    12:00 +18°C° 0 mm 2 mps 771 mmHg 52%
    13:00 +18°C° 0 mm 2 mps 771 mmHg 52%
    14:00 +18°C° 0 mm 2 mps 770 mmHg 51%
    15:00 +18°C° 0 mm 3 mps 770 mmHg 51%
    16:00 +16°C° 0 mm 2 mps 770 mmHg 56%
    17:00 +15°C° 0 mm 2 mps 770 mmHg 62%
    18:00 +14°C° 0 mm 2 mps 770 mmHg 68%
    19:00 +13°C° 0 mm 1 mps 770 mmHg 69%
    20:00 +13°C° 0 mm 1 mps 771 mmHg 71%
    21:00 +13°C° 0 mm 1 mps 771 mmHg 72%
    22:00 +12°C° 0 mm 1 mps 771 mmHg 73%
    23:00 +12°C° 0 mm 1 mps 771 mmHg 73%

    Day after tomorrow, 26 February, Tuesday

    Time Temperature Precipitation Wind Pressure Humidity
    00:00 +12°C° 0 mm 1 mps 771 mmHg 73%
    01:00 +12°C° 0 mm 1 mps 770 mmHg 73%
    02:00 +10°C° 0 mm 0 mps 770 mmHg 73%
    03:00 +10°C° 0 mm 0 mps 770 mmHg 73%
    04:00 +10°C° 0 mm 0 mps 770 mmHg 73%
    05:00 +10°C° 0 mm 0 mps 770 mmHg 73%
    06:00 +10°C° 0 mm 0 mps 770 mmHg 74%
    07:00 +11°C° 0 mm 0 mps 771 mmHg 68%
    08:00 +14°C° 0 mm 1 mps 771 mmHg 62%
    09:00 +15°C° 0 mm 1 mps 771 mmHg 56%
    10:00 +16°C° 0 mm 1 mps 771 mmHg 50%
    11:00 +18°C° 0 mm 1 mps 771 mmHg 44%
    12:00 +20°C° 0 mm 1 mps 771 mmHg 38%
    13:00 +19°C° 0 mm 2 mps 770 mmHg 39%
    14:00 +19°C° 0 mm 2 mps 770 mmHg 40%
    15:00 +19°C° 0 mm 2 mps 769 mmHg 41%
    16:00 +17°C° 0 mm 2 mps 770 mmHg 48%
    17:00 +16°C° 0 mm 1 mps 770 mmHg 56%
    18:00 +14°C° 0 mm 1 mps 770 mmHg 63%
    19:00 +14°C° 0 mm 1 mps 770 mmHg 64%
    20:00 +13°C° 0 mm 1 mps 770 mmHg 65%
    21:00 +13°C° 0 mm 1 mps 771 mmHg 66%
    22:00 +12°C° 0 mm 1 mps 770 mmHg 65%
    23:00 +12°C° 0 mm 1 mps 770 mmHg 63%

    27 February, Wednesday

    Time Temperature Precipitation Wind Pressure Humidity
    00:00 +12°C° 0 mm 1 mps 770 mmHg 62%
    01:00 +12°C° 0 mm 1 mps 770 mmHg 60%
    02:00 +11°C° 0 mm 1 mps 770 mmHg 59%
    03:00 +10°C° 0 mm 2 mps 770 mmHg 57%
    04:00 +10°C° 0 mm 2 mps 769 mmHg 56%
    05:00 +10°C° 0 mm 2 mps 769 mmHg 54%
    06:00 +10°C° 0 mm 2 mps 769 mmHg 52%
    07:00 +12°C° 0 mm 2 mps 769 mmHg 47%
    08:00 +14°C° 0 mm 2 mps 769 mmHg 41%
    09:00 +16°C° 0 mm 2 mps 769 mmHg 35%
    10:00 +17°C° 0 mm 3 mps 769 mmHg 33%
    11:00 +18°C° 0 mm 3 mps 769 mmHg 31%
    12:00 +19°C° 0 mm 3 mps 768 mmHg 29%
    13:00 +19°C° 0 mm 3 mps 768 mmHg 31%
    14:00 +19°C° 0 mm 4 mps 767 mmHg 34%
    15:00 +19°C° 0 mm 4 mps 767 mmHg 36%
    16:00 +17°C° 0 mm 3 mps 767 mmHg 47%
    17:00 +16°C° 0 mm 3 mps 767 mmHg 57%
    18:00 +13°C° 0 mm 3 mps 767 mmHg 68%
    19:00 +14°C° 0 mm 2 mps 767 mmHg 68%
    20:00 +14°C° 0 mm 2 mps 768 mmHg 68%
    21:00 +13°C° 0 mm 2 mps 768 mmHg 68%
    22:00 +13°C° 0 mm 2 mps 768 mmHg 65%
    23:00 +13°C° 0 mm 2 mps 768 mmHg 62%

    28 February, Thursday

    Time Temperature Precipitation Wind Pressure Humidity
    00:00 +13°C° 0 mm 2 mps 767 mmHg 60%
    01:00 +13°C° 0 mm 1 mps 767 mmHg 57%
    02:00 +13°C° 0 mm 1 mps 767 mmHg 55%
    03:00 +13°C° 0 mm 1 mps 767 mmHg 53%
    04:00 +13°C° 0 mm 1 mps 767 mmHg 52%
    05:00 +12°C° 0 mm 1 mps 767 mmHg 52%
    06:00 +12°C° 0 mm 1 mps 767 mmHg 51%
    07:00 +14°C° 0 mm 1 mps 767 mmHg 47%
    08:00 +15°C° 0 mm 0 mps 767 mmHg 43%
    09:00 +17°C° 0 mm 0 mps 768 mmHg 38%
    10:00 +20°C° 0 mm 1 mps 767 mmHg 37%
    11:00 +20°C° 0 mm 2 mps 767 mmHg 35%
    12:00 +21°C° 0 mm 2 mps 767 mmHg 33%
    13:00 +21°C° 0 mm 2 mps 766 mmHg 34%
    14:00 +20°C° 0 mm 3 mps 766 mmHg 36%
    15:00 +20°C° 0 mm 3 mps 765 mmHg 37%
    16:00 +19°C° 0 mm 2 mps 766 mmHg 42%
    17:00 +17°C° 0 mm 2 mps 766 mmHg 47%
    18:00 +16°C° 0 mm 1 mps 766 mmHg 51%
    19:00 +16°C° 0 mm 1 mps 766 mmHg 50%
    20:00 +15°C° 0 mm 1 mps 767 mmHg 49%
    21:00 +15°C° 0 mm 2 mps 767 mmHg 49%
    22:00 +15°C° 0 mm 2 mps 767 mmHg 49%
    23:00 +14°C° 0 mm 1 mps 767 mmHg 49%

    1 March, Friday

    Time Temperature Precipitation Wind Pressure Humidity
    00:00 +14°C° 0 mm 1 mps 767 mmHg 50%
    01:00 +14°C° 0 mm 1 mps 767 mmHg 51%
    02:00 +14°C° 0 mm 1 mps 766 mmHg 53%
    03:00 +13°C° 0 mm 1 mps 766 mmHg 54%
    04:00 +13°C° 0 mm 1 mps 766 mmHg 55%
    05:00 +13°C° 0 mm 2 mps 766 mmHg 56%
    06:00 +13°C° 0 mm 2 mps 765 mmHg 57%
    07:00 +14°C° 0 mm 2 mps 765 mmHg 52%
    08:00 +16°C° 0 mm 1 mps 765 mmHg 48%
    09:00 +18°C° 0 mm 1 mps 765 mmHg 43%
    10:00 +18°C° 0 mm 2 mps 765 mmHg 40%
    11:00 +19°C° 0 mm 3 mps 764 mmHg 36%
    12:00 +21°C° 0 mm 3 mps 764 mmHg 33%
    13:00 +21°C° 0 mm 3 mps 763 mmHg 33%
    14:00 +21°C° 0 mm 3 mps 762 mmHg 33%
    15:00 +21°C° 0 mm 4 mps 762 mmHg 33%
    16:00 +20°C° 0 mm 3 mps 762 mmHg 39%
    17:00 +18°C° 0 mm 3 mps 762 mmHg 45%
    18:00 +16°C° 0 mm 2 mps 762 mmHg 51%
    19:00 +16°C° 0 mm 2 mps 762 mmHg 52%
    20:00 +15°C° 0 mm 1 mps 763 mmHg 53%
    21:00 +15°C° 0 mm 1 mps 763 mmHg 55%
    22:00 +15°C° 0 mm 1 mps 763 mmHg 54%
    23:00 +14°C° 0 mm 1 mps 763 mmHg 53%
    Show more